Location: Brantley
(31.5822°N, 86.2569°W)
Time: 03:06:21
(UTC+00:00)

Vanguard 3 - Pass Details

Date: 19 February 2026
Orbit: 507 x 3205 km, 33.4° (Epoch: 7 March)

Event Time Altitude Azimuth Distance (km) Brightness Sun altitude
Rises 18:13:52 0° 212° (SSW) 7,041 12.5 47.2°
Reaches altitude 10° 18:19:44 10° 204° (SSW) 5,805 12.4 47.0°
Maximum altitude 18:33:28 31° 150° (SSE) 3,440 11.4 46.5°
Drops below altitude 10° 18:42:49 10° 93° (E) 3,946 10.7 46.1°
Sets 18:45:53 0° 83° (E) 4,582 10.8 45.9°
